User: anonymous   Login
Location: Caltech
(34.1382°N, 118.1253°W)
Time: 10:56:45
(UTC-08:00)
Language:

Cosmos 44 Rocket - Orbit

View from above orbital plane
View from above orbital plane
View from above satellite
View from above satellite

Ground track
Ground track

The orbit data is extracted from the following two-line orbital elements,

1   877U 64053B   16044.85913628 +.00000050 +00000-0 +35181-4 0  9994
2   877 065.0776 282.0492 0081433 296.4623 062.8138 14.59215918730129
Epoch (UTC): 13 February 2016 20:37:09
Eccentricity: 0.0081433
inclination: 65.0776°
perigee height: 638 km
apogee height: 753 km
right ascension of ascending node: 282.0492°
argument of perigee: 296.4623°
revolutions per day: 14.59215918
mean anomaly at epoch: 62.8138°
orbit number at epoch: 73012

The dashed part of the orbit path shows where the satellite is in the earth's shadow,  

DLR